Location: Unspecified
(0.0000°N, 0.0000°E)
Time: 05:27:37
(UTC+00:00)

Courier 1B - Visible Passes

Search period start: 18 June 2019 00:00
Search period end: 28 June 2019 00:00
Orbit: 963 x 1209 km, 28.3° (Epoch: 17 June)

Date Brightness Start Highest point End Pass type
(mag) Time Alt. Az. Time Alt. Az. Time Alt. Az.
18 Jun 8.8 02:58:39 41° NE 02:58:39 41° NE 03:04:17 10° E visible
18 Jun 7.8 04:45:39 15° WNW 04:51:44 56° SSW 04:58:34 10° SE visible
19 Jun 10.3 02:09:37 11° E 02:09:37 11° E 02:09:57 10° E visible
19 Jun 7.6 03:56:37 64° W 03:57:50 78° SSW 04:05:01 10° SE visible
20 Jun 8.9 03:07:27 34° ESE 03:07:27 34° ESE 03:11:15 10° ESE visible
20 Jun 8.5 04:54:25 21° WSW 04:58:15 32° SSW 05:04:27 10° SSE visible
20 Jun 10.3 18:22:45 10° NW 18:25:22 12° NNW 18:28:01 10° N visible
21 Jun 8.2 04:05:04 43° SSW 04:05:04 43° SSW 04:11:09 10° SE visible
22 Jun 9.5 03:15:33 21° SE 03:15:33 21° SE 03:17:39 10° SE visible
22 Jun 9.1 05:02:30 16° SW 05:04:57 19° SSW 05:09:47 10° SSE visible
23 Jun 9.0 04:12:50 23° S 04:12:50 23° S 04:16:48 10° SSE visible
24 Jun 9.9 03:23:00 12° SSE 03:23:00 12° SSE 03:23:34 10° SE visible
24 Jun 9.5 05:09:56 10° SW 05:11:56 11° SSW 05:13:58 10° S visible
25 Jun 9.6 04:20:00 14° S 04:20:00 14° S 04:21:53 10° S visible
25 Jun 10.2 21:35:37 10° N 21:36:39 12° N 21:36:39 12° N visible
27 Jun 10.1 21:40:24 10° NNW 21:42:03 15° NNW 21:42:03 15° NNW visible
